"TOA5","AWS1","CR1000","7964","CR1000.Std.14","CPU:AWS1_114.CR1","64363","TBL110"
"TIMESTAMP","RECORD","Wind_spd_WVc(1)","Wind_spd_WVc(2)","Air_Temp_Avg","Humidity_Avg","SW_upper_Wm2_Avg","Rain_Tot","Press_Avg","Issui_Tot","Depth_cm","SR50A_Raw","Quality","Ground_Temp_Avg(1)","Ground_Temp_Avg(2)","SW_lower_Wm2_Avg","Albedo_Avg","SWC_per(1)","SWC_per(2)","Period(1)","Period(2)"
"TS","RN","","","","","","","","","","","","","","","","","","",""
"","","WVc","WVc","Avg","Avg","Avg","Tot","Avg","Tot","Smp","Smp","Smp","Avg","Avg","Avg","Avg","Smp","Smp","Smp","Smp"
"2018-07-12 00:00:00",348973,0.247,33.7,17.88,100,0,0,870.21,0,20.19,2.885,272,20.58,19.54,0.6328539,0,50.5,57.62,33.42,35.13
"2018-07-12 00:10:00",348974,0.428,57.54,18.06,98.8,0,0,870.1868,0,17.42,2.911,276,20.59,19.53,0.7616985,0,50.44,57.56,33.41,35.12
"2018-07-12 00:20:00",348975,0.588,50.53,18.15,93.5,0,0,870.0394,0,23.88,2.848,292,20.62,19.52,0.7313821,0,50.5,57.56,33.42,35.12
"2018-07-12 00:30:00",348976,0.109,319.9,18.08,94.6,0,0,869.9319,0,17.1,2.915,259,20.58,19.52,0.5798003,0,50.44,57.62,33.41,35.13
"2018-07-12 00:40:00",348977,0.129,90.9,17.99,98.3,0,0,869.8919,0,21.35,2.874,289,20.58,19.52,0.5873794,0,50.44,57.62,33.41,35.13
"2018-07-12 00:50:00",348978,0.052,13.45,17.66,100,0,0,869.7361,0,22.45,2.864,330,20.5,19.51,0.2690577,0,50.44,57.56,33.41,35.12
"2018-07-12 01:00:00",348979,0,0,17.67,100,0,0,869.6876,0,22.7,2.862,299,20.51,19.52,0.2690577,0,50.44,57.56,33.41,35.12
"2018-07-12 01:10:00",348980,0,0,17.67,100,0,0,869.694,0,20.68,2.882,249,20.57,19.52,0.3713754,0,50.44,57.56,33.41,35.12
"2018-07-12 01:20:00",348981,0,0,17.46,100,0,0,869.6287,0,22.63,2.864,267,20.52,19.52,0.257689,0,50.44,57.56,33.41,35.12
"2018-07-12 01:30:00",348982,0.059,353.2,17.49,100,0,0,869.6202,0,-16.33,3.241,218,20.41,19.52,0.4774826,0,50.44,57.56,33.41,35.12
"2018-07-12 01:40:00",348983,0.023,28.43,17.58,100,0,0,869.6497,0,20.91,2.88,267,20.41,19.52,0.4585349,0,50.44,57.56,33.41,35.12
"2018-07-12 01:50:00",348984,0.076,18.74,17.49,100,0,0,869.5086,0,22.01,2.87,265,20.43,19.52,0.2501099,0,50.44,57.51,33.41,35.1
"2018-07-12 02:00:00",348985,0,0,17.44,100,0,0,869.4349,0,21.55,2.874,262,20.46,19.53,0.2273727,0,50.44,57.51,33.41,35.1
"2018-07-12 02:10:00",348986,0,0,17.48,100,0,0,869.4286,0,18.37,2.905,250,20.37,19.53,0.2273727,0,50.44,57.51,33.41,35.1
"2018-07-12 02:20:00",348987,0.019,326.9,17.46,100,0,0,869.4349,0,20.56,2.884,264,20.32,19.52,0.2614786,0,50.44,57.51,33.41,35.1
"2018-07-12 02:30:00",348988,0.016,56.18,17.42,100,0,0,869.4454,0,22.99,2.86,317,20.32,19.53,0.2387413,0,50.44,57.51,33.41,35.1
"2018-07-12 02:40:00",348989,0,0,17.53,100,0,0,869.4812,0,21.88,2.871,274,20.33,19.53,0.2501099,0,50.44,57.51,33.41,35.1
"2018-07-12 02:50:00",348990,0.013,357.8,17.49,100,0,0,869.6708,0,16.47,2.923,257,20.36,19.53,0.2311622,0,50.44,57.51,33.41,35.1
"2018-07-12 03:00:00",348991,0,0,17.47,100,0,0,869.557,0,28.98,2.802,307,20.33,19.53,0.2273727,0,50.44,57.45,33.41,35.09
"2018-07-12 03:10:00",348992,0,0,17.48,100,0,0,869.4286,0,33.04,2.763,352,20.27,19.53,0.2614786,0,50.44,57.45,33.41,35.09
"2018-07-12 03:20:00",348993,0,0,17.34,100,0,0,869.4286,0,-8.52,3.166,170,20.23,19.54,0.5229571,0,50.44,57.45,33.41,35.09
"2018-07-12 03:30:00",348994,0,0,17.4,100,0,0,869.3991,0,15.45,2.934,433,20.23,19.54,0.549484,0,50.44,57.45,33.41,35.09
"2018-07-12 03:40:00",348995,0,0,17.25,100,0,0,869.4244,0,25.1,2.84,326,20.26,19.54,0.3789544,0,50.44,57.45,33.41,35.09
"2018-07-12 03:50:00",348996,0,0,17.3,100,0,0,869.2748,0,26.1,2.831,354,20.31,19.54,0.3675858,0,50.44,57.45,33.41,35.09
"2018-07-12 04:00:00",348997,0.003,56.11,17.12,100,0,0,869.1948,0,-14.95,3.23,176,20.32,19.54,0.5305362,0,50.39,57.45,33.39,35.09
"2018-07-12 04:10:00",348998,0,0,17.08,100,0,0,869.1758,0,-17.34,3.254,196,20.31,19.54,0.3486381,0,50.44,57.45,33.41,35.09
"2018-07-12 04:20:00",348999,0.268,120.7,16.84,100,0,0,869.1484,0,31.84,2.778,249,20.19,19.54,0.2273727,0,50.39,57.39,33.39,35.07
"2018-07-12 04:30:00",349000,0.002,124.5,16.74,100,0.04716344,0,869.0599,0,-43.28,3.507,252,20.15,19.54,0.3259008,0.297,50.44,57.39,33.41,35.07
"2018-07-12 04:40:00",349001,0.009,111.2,16.66,100,1.061177,0,868.9273,0,30.5,2.791,345,20.18,19.54,0.7200135,0.739,50.39,57.39,33.39,35.07
"2018-07-12 04:50:00",349002,0.075,103.2,16.54,100,1.874747,0,868.923,0,30.28,2.794,264,20.23,19.54,0.9057011,0.494,50.44,57.39,33.41,35.07
"2018-07-12 05:00:00",349003,0,0,16.53,100,3.953869,0,868.923,0,29.17,2.805,250,20.23,19.54,1.08381,0.282,50.44,57.39,33.41,35.07
"2018-07-12 05:10:00",349004,0,0,16.53,100,8.410814,0,868.923,0,33.16,2.766,345,20.17,19.53,1.834139,0.219,50.44,57.39,33.41,35.07
"2018-07-12 05:20:00",349005,0,0,16.6,100,9.570249,0,868.923,0,-7.304,3.158,170,20.08,19.53,1.74698,0.182,50.44,57.39,33.41,35.07
"2018-07-12 05:30:00",349006,0,0,16.59,100,12.20354,0,868.9252,0,-16.32,3.246,181,20.06,19.53,1.925089,0.159,50.44,57.39,33.41,35.07
"2018-07-12 05:40:00",349007,0,0,16.68,100,21.27857,0,868.923,0,-12.66,3.21,169,20.08,19.52,2.978582,0.141,50.44,57.33,33.41,35.06
"2018-07-12 05:50:00",349008,0,0,16.72,100,29.93307,0,868.923,0,16.63,2.925,246,20.1,19.5,4.058602,0.136,50.44,57.33,33.41,35.06
"2018-07-12 06:00:00",349009,0,0,16.87,100,43.83449,0,868.923,0,20.27,2.889,250,20.11,19.51,6.173168,0.141,50.44,57.33,33.41,35.06
"2018-07-12 06:10:00",349010,0,0,16.95,100,37.29057,0,868.923,0,29.59,2.799,276,20.13,19.5,5.017357,0.135,50.44,57.39,33.41,35.07
"2018-07-12 06:20:00",349011,0,0,16.73,100,43.3943,0,868.923,0,29.14,2.804,273,20.07,19.46,5.642632,0.13,50.44,57.33,33.41,35.06
"2018-07-12 06:30:00",349012,0,0,16.75,100,53.47155,0,868.9315,0,-12.81,3.211,170,19.98,19.45,6.870444,0.129,50.44,57.33,33.41,35.06
"2018-07-12 06:40:00",349013,0,0,16.87,100,66.23713,0,868.923,0,-21.1,3.29,220,19.97,19.45,8.458263,0.128,50.44,57.33,33.41,35.06
"2018-07-12 06:50:00",349014,0,0,17.08,100,76.74671,0,868.921,0,12.61,2.962,221,19.97,19.42,9.98924,0.13,50.44,57.33,33.41,35.06
"2018-07-12 07:00:00",349015,0,0,17.33,100,107.0532,0,868.9147,0,-14.86,3.228,184,19.98,19.44,13.94552,0.13,50.5,57.33,33.42,35.06
"2018-07-12 07:10:00",349016,0,0,17.34,100,128.3239,0,868.921,0,18.81,2.901,264,19.98,19.44,16.95821,0.132,50.5,57.33,33.42,35.06
"2018-07-12 07:20:00",349017,0,0,17.6,100,121.666,0,868.923,0,-12.43,3.202,190,19.98,19.44,15.76829,0.13,50.5,57.33,33.42,35.06
"2018-07-12 07:30:00",349018,0.009,300.9,17.7,100,111.9778,0,868.9757,0,29.78,2.793,410,19.97,19.41,14.3889,0.128,50.55,57.33,33.43,35.06
"2018-07-12 07:40:00",349019,0,0,17.68,100,92.44035,0,869.1505,0,28.73,2.804,378,19.93,19.39,11.63769,0.126,50.5,57.33,33.42,35.06
"2018-07-12 07:50:00",349020,0.089,26.46,17.68,100,81.69102,0,869.1737,0,21.26,2.876,265,19.94,19.37,10.20524,0.125,50.55,57.33,33.43,35.06
"2018-07-12 08:00:00",349021,0.14,5.34,17.44,100,134.746,0,869.1674,0,-23.45,3.31,192,19.91,19.36,16.99232,0.126,50.55,57.33,33.43,35.06
"2018-07-12 08:10:00",349022,0,0,17.73,100,179.1896,0,869.1,0,-17.95,3.255,176,19.89,19.36,22.41137,0.125,50.5,57.33,33.42,35.06
"2018-07-12 08:20:00",349023,0.024,61.84,18,100,192.0653,0,868.9589,0,24.69,2.841,270,19.89,19.36,24.31751,0.127,50.61,57.39,33.45,35.07
"2018-07-12 08:30:00",349024,0.242,15.4,17.83,100,233.5809,0,868.9252,0,-16.68,3.242,186,19.86,19.37,31.32059,0.134,50.61,57.33,33.45,35.06
"2018-07-12 08:40:00",349025,0.206,3.605,18.04,100,198.9,0,868.923,0,29.19,2.797,330,19.86,19.36,26.40176,0.133,50.61,57.39,33.45,35.07
"2018-07-12 08:50:00",349026,0.227,14.45,18.08,100,189.2433,0,868.923,0,28.51,2.804,348,19.86,19.36,24.92004,0.131,50.66,57.39,33.46,35.07
"2018-07-12 09:00:00",349027,0.147,21.59,17.98,100,167.2927,0,868.923,0,25.78,2.83,320,19.86,19.38,22.11578,0.132,50.66,57.39,33.46,35.07
"2018-07-12 09:10:00",349028,0.062,293.7,18.06,100,151.485,0,868.923,0,-14.18,3.217,168,19.85,19.39,19.30773,0.127,50.66,57.39,33.46,35.07
"2018-07-12 09:20:00",349029,0.156,12.01,18.15,100,212.9862,0,868.923,0,-13.29,3.207,170,19.88,19.39,28.77022,0.134,50.72,57.39,33.47,35.07
"2018-07-12 09:30:00",349030,0.163,27.97,18.46,100,186.5275,0,868.923,0,-16.13,3.234,181,19.92,19.37,26.3146,0.141,50.72,57.39,33.47,35.07
"2018-07-12 09:40:00",349031,0.32,14.41,18.32,100,204.1116,0,868.923,0,14.52,2.938,268,19.97,19.39,28.81949,0.141,50.72,57.45,33.47,35.09
"2018-07-12 09:50:00",349032,0.424,16.97,18.29,100,113.7975,0,868.923,0,14.98,2.934,292,19.98,19.41,15.18091,0.133,50.72,57.45,33.47,35.09
"2018-07-12 10:00:00",349033,0.28,49.18,18.29,100,228.3418,0,868.921,0,21.2,2.872,282,19.98,19.41,32.44987,0.141,50.77,57.45,33.49,35.09
"2018-07-12 10:10:00",349034,0.016,26.16,18.67,100,196.9427,0,868.8746,0,21.11,2.871,251,19.97,19.41,27.45525,0.139,50.77,57.45,33.49,35.09
"2018-07-12 10:20:00",349035,0.123,358.8,18.86,100,141.5178,0,868.8704,0,-60.55,3.662,320,19.95,19.4,18.76961,0.131,50.77,57.51,33.49,35.1
"2018-07-12 10:30:00",349036,0.407,31.5,18.65,100,146.8394,0,868.9041,0,-20.34,3.273,182,19.94,19.41,20.67575,0.14,50.77,57.51,33.49,35.1
"2018-07-12 10:40:00",349037,0.072,9.21,18.88,100,174.0685,0,868.7988,0,23.68,2.847,321,19.96,19.41,24.70783,0.139,50.83,57.51,33.5,35.1
"2018-07-12 10:50:00",349038,0.058,234,18.73,100,80.6377,0,868.6872,0,21.57,2.868,240,19.99,19.4,9.867974,0.121,50.77,57.51,33.49,35.1
"2018-07-12 11:00:00",349039,0.095,271.3,18.67,100,130.289,0,868.843,0,-19.1,3.261,170,20.02,19.37,17.34854,0.131,50.77,57.56,33.49,35.12
"2018-07-12 11:10:00",349040,0.155,312.7,19.02,100,434.6426,0,868.8768,0,-15.26,3.221,175,20.05,19.39,60.71229,0.14,50.77,57.51,33.49,35.1
"2018-07-12 11:20:00",349041,0.152,295.3,19.26,100,307.2816,0,868.6914,0,23.19,2.849,284,20.06,19.4,41.39319,0.132,50.77,57.51,33.49,35.1
"2018-07-12 11:30:00",349042,0.21,312.2,18.99,100,123.5407,0,868.6703,0,23,2.854,303,20.06,19.39,14.79817,0.118,50.77,57.51,33.49,35.1
"2018-07-12 11:40:00",349043,0.026,309.9,18.95,100,265.6678,0,868.6703,0,-6.623,3.138,170,20.06,19.35,35.02676,0.132,50.77,57.56,33.49,35.12
"2018-07-12 11:50:00",349044,0.017,278.1,19.47,100,489.8945,0,868.6661,0,17.32,2.902,249,20.04,19.37,65.57428,0.134,50.77,57.56,33.49,35.12
"2018-07-12 12:00:00",349045,0.101,247.1,20.04,99.9,454.6988,0,868.4786,0,18.39,2.891,286,20.09,19.37,60.47734,0.132,50.77,57.56,33.49,35.12
"2018-07-12 12:10:00",349046,0.342,49.52,20.14,93.9,336.236,0,868.4176,0,-16.43,3.227,186,20.15,19.36,46.26655,0.137,50.77,57.56,33.49,35.12
"2018-07-12 12:20:00",349047,0.365,3.581,20,92.8,302.9976,0,868.4176,0,16.19,2.914,251,20.11,19.36,42.16626,0.139,50.77,57.56,33.49,35.12
"2018-07-12 12:30:00",349048,0.353,43.17,20.51,90.4,825.6078,0,868.3333,0,21.8,2.852,301,20.12,19.35,121.0532,0.146,50.77,57.62,33.49,35.13
"2018-07-12 12:40:00",349049,0.251,156.9,21.87,81.1,802.2855,0,868.1901,0,17.02,2.898,260,20.17,19.34,112.6897,0.136,50.77,57.62,33.49,35.13
"2018-07-12 12:50:00",349050,0.264,275.2,20.98,84.5,393.3706,0,868.1649,0,23.86,2.837,279,20.19,19.36,53.83427,0.135,50.77,57.62,33.49,35.13
"2018-07-12 13:00:00",349051,0.229,332.1,20.65,88.4,343.8412,0,868.1501,0,25.54,2.82,278,20.19,19.34,48.3508,0.139,50.72,57.62,33.47,35.13
"2018-07-12 13:10:00",349052,0.39,20.99,20.35,91.9,135.4809,0,868.1375,0,26.15,2.817,275,20.19,19.3,19.06141,0.14,50.77,57.56,33.49,35.12
"2018-07-12 13:20:00",349053,0.161,259.4,20.25,92.7,375.0044,0,868.0757,0,21.5,2.86,326,20.16,19.32,55.88062,0.147,50.77,57.56,33.49,35.12
"2018-07-12 13:30:00",349054,0.178,232.3,20.41,93.1,213.5128,0,867.9612,0,-12.48,3.188,183,20.26,19.31,29.37276,0.137,50.77,57.62,33.49,35.13
"2018-07-12 13:40:00",349055,0.075,353.4,20.3,97.8,93.48581,0,867.9113,0,-13.37,3.198,186,20.28,19.3,12.02043,0.12,50.77,57.56,33.49,35.12
"2018-07-12 13:50:00",349056,0.265,174.9,19.95,100,124.1774,0,867.9119,0,-19.29,3.257,185,20.26,19.28,16.90137,0.128,50.77,57.62,33.49,35.13
"2018-07-12 14:00:00",349057,0.615,357.6,19.58,100,101.9202,0,867.912,0,18.28,2.896,262,20.38,19.26,15.02554,0.147,50.77,57.56,33.49,35.12
"2018-07-12 14:10:00",349058,0.401,279.6,19.36,100,90.80534,0,867.9247,0,-18,3.248,184,20.39,19.24,12.86171,0.141,50.77,57.56,33.49,35.12
"2018-07-12 14:20:00",349059,0.362,206.6,19.16,100,158.7915,0,868.1143,0,-25.19,3.317,192,20.41,19.24,23.8855,0.15,50.77,57.56,33.49,35.12
"2018-07-12 14:30:00",349060,0.224,318.3,19.41,98.2,164.3017,0,868.1649,0,14.03,2.937,329,20.47,19.27,24.57899,0.15,50.72,57.56,33.47,35.12
"2018-07-12 14:40:00",349061,0.255,49.73,19.41,97.8,145.8844,0,868.1649,0,20.38,2.877,264,20.48,19.29,21.56251,0.148,50.72,57.56,33.47,35.12
"2018-07-12 14:50:00",349062,0.06,351.3,19.21,100,118.3881,0,868.169,0,21.95,2.862,256,20.53,19.29,18.16329,0.154,50.72,57.56,33.47,35.12
"2018-07-12 15:00:00",349063,0.27,150.9,19.14,100,109.7493,0,868.188,0,22.59,2.856,258,20.52,19.3,17.16664,0.156,50.72,57.62,33.47,35.13
"2018-07-12 15:10:00",349064,0.215,38.68,19.01,100,126.2094,0,868.2912,0,22.25,2.86,281,20.57,19.3,19.34184,0.154,50.72,57.56,33.47,35.12
"2018-07-12 15:20:00",349065,0.179,195.8,19.1,98.3,157.3923,0,868.2491,0,22.11,2.86,245,20.58,19.31,23.60507,0.15,50.72,57.56,33.47,35.12
"2018-07-12 15:30:00",349066,0.496,4.91,18.99,97.1,108.8257,0,868.1922,0,22.16,2.861,241,20.55,19.32,16.4921,0.152,50.72,57.56,33.47,35.12
"2018-07-12 15:40:00",349067,0.309,347.4,18.93,99.3,148.164,0,868.3038,0,21.31,2.869,245,20.54,19.34,22.67663,0.153,50.72,57.56,33.47,35.12
"2018-07-12 15:50:00",349068,0.312,223.9,19.06,95.8,194.5571,0,868.209,0,21.26,2.868,276,20.54,19.39,29.11128,0.15,50.72,57.56,33.47,35.12
"2018-07-12 16:00:00",349069,0.129,196.6,19.32,96.3,200.5468,0,868.1796,0,22.52,2.855,429,20.54,19.39,28.46327,0.142,50.72,57.56,33.47,35.12
"2018-07-12 16:10:00",349070,0.04,197.6,19.68,92.9,212.6442,0,868.1649,0,21.49,2.863,268,20.64,19.36,30.24814,0.142,50.72,57.56,33.47,35.12
"2018-07-12 16:20:00",349071,0.028,292.8,19.85,91,221.4206,0,868.1649,0,17.43,2.902,343,20.63,19.36,31.78291,0.143,50.66,57.56,33.46,35.12
"2018-07-12 16:30:00",349072,0.158,313.3,19.71,92.3,183.2732,0,868.1585,0,22,2.86,282,20.63,19.36,25.57943,0.139,50.72,57.62,33.47,35.13
"2018-07-12 16:40:00",349073,0.32,291.5,19.44,93.2,184.4248,0,868.1649,0,11.88,2.958,249,20.63,19.36,26.29565,0.143,50.72,57.56,33.47,35.12
"2018-07-12 16:50:00",349074,0.443,236.9,19.33,91.1,152.9196,0,868.1649,0,20.93,2.871,288,20.63,19.36,22.06652,0.144,50.66,57.56,33.46,35.12
"2018-07-12 17:00:00",349075,0.174,229.7,19.28,94.5,113.0429,0,868.2638,0,21.68,2.864,333,20.63,19.36,15.87061,0.14,50.66,57.62,33.46,35.13
"2018-07-12 17:10:00",349076,0.14,220.2,19.27,93.9,74.42391,0,868.4133,0,18.93,2.891,278,20.63,19.36,10.09535,0.136,50.66,57.56,33.46,35.12
"2018-07-12 17:20:00",349077,0.215,347.1,19.11,97.6,44.42796,0,868.4155,0,16.85,2.912,236,20.63,19.36,6.040534,0.137,50.66,57.62,33.46,35.13
"2018-07-12 17:30:00",349078,0.333,293.7,18.82,100,66.64194,0,868.4176,0,21.07,2.872,303,20.63,19.36,9.879343,0.148,50.66,57.56,33.46,35.12
"2018-07-12 17:40:00",349079,0.326,253.6,18.86,99.1,87.19341,0,868.4176,0,21.73,2.865,302,20.65,19.36,13.18004,0.151,50.66,57.62,33.46,35.13
"2018-07-12 17:50:00",349080,0.195,283,18.93,98.7,45.88217,0,868.4133,0,-18.99,3.26,171,20.67,19.36,6.499069,0.138,50.66,57.62,33.46,35.13
"2018-07-12 18:00:00",349081,0.379,278.9,18.65,100,29.73262,0,868.4176,0,20.97,2.874,301,20.69,19.36,4.119235,0.138,50.66,57.56,33.46,35.12
"2018-07-12 18:10:00",349082,0.25,260.8,18.67,97,32.02005,0,868.4176,0,17.39,2.908,272,20.69,19.36,4.73693,0.149,50.66,57.62,33.46,35.13
"2018-07-12 18:20:00",349083,0.509,282.3,18.62,95.9,30.82524,0,868.4639,0,20.07,2.883,287,20.7,19.36,4.915039,0.159,50.66,57.56,33.46,35.12
"2018-07-12 18:30:00",349084,0.367,305.6,18.68,93.9,30.77808,0,868.5039,0,21.76,2.866,232,20.71,19.36,5.134833,0.167,50.66,57.56,33.46,35.12
"2018-07-12 18:40:00",349085,0.26,264.9,18.71,93,27.88932,0,868.5966,0,21.76,2.866,241,20.71,19.37,4.771036,0.172,50.61,57.62,33.45,35.13
"2018-07-12 18:50:00",349086,0.25,197.4,18.54,96.6,14.45953,0,868.6682,0,21.31,2.872,263,20.7,19.4,2.466994,0.171,50.66,57.62,33.46,35.13
"2018-07-12 19:00:00",349087,0.336,202.8,18.32,100,6.57537,0,868.6703,0,20.74,2.878,270,20.7,19.45,1.25055,0.192,50.61,57.56,33.45,35.12
"2018-07-12 19:10:00",349088,0.213,203.3,18.26,100,1.540672,0,868.6703,0,19.95,2.885,321,20.67,19.48,0.5456944,0.535,50.66,57.62,33.46,35.13
"2018-07-12 19:20:00",349089,0.198,212.7,18.4,100,0.1925841,0,868.6703,0,21.52,2.87,270,20.65,19.51,0.5191676,0.587,50.61,57.56,33.45,35.12
"2018-07-12 19:30:00",349090,0.306,216.7,18.37,99.5,0,0,868.6703,0,22.24,2.863,254,20.66,19.53,0.5153781,0,50.61,57.56,33.45,35.12
"2018-07-12 19:40:00",349091,0.25,175.9,18.19,100,0,0,868.5671,0,21.37,2.873,258,20.67,19.54,0.2955845,0,50.66,57.56,33.46,35.12
"2018-07-12 19:50:00",349092,0.206,231.9,18.31,99.6,0,0,868.4766,0,22.92,2.856,257,20.67,19.54,0.6669598,0,50.61,57.56,33.45,35.12
"2018-07-12 20:00:00",349093,0.147,42.27,18.4,98.5,0,0,868.4386,0,21.93,2.866,261,20.67,19.54,0.6821181,0,50.61,57.56,33.45,35.12
"2018-07-12 20:10:00",349094,0.037,58.23,18.32,99.3,0,0,868.4176,0,21.58,2.869,265,20.68,19.54,0.4395872,0,50.61,57.56,33.45,35.12
"2018-07-12 20:20:00",349095,0.13,141,18.67,91,0,0,868.5208,0,20.24,2.882,252,20.7,19.53,0.9360175,0,50.61,57.56,33.45,35.12
"2018-07-12 20:30:00",349096,0.348,163.1,18.26,98.9,0,0,868.426,0,21.05,2.875,251,20.67,19.53,0.2804263,0,50.61,57.56,33.45,35.12
"2018-07-12 20:40:00",349097,0.32,205.3,18.39,96.4,0,0,868.4218,0,18.31,2.9,243,20.61,19.53,0.6631703,0,50.61,57.56,33.45,35.12
"2018-07-12 20:50:00",349098,0.308,190,18.53,92.2,0,0,868.5313,0,20.75,2.877,255,20.59,19.5,0.7844357,0,50.61,57.56,33.45,35.12
"2018-07-12 21:00:00",349099,0.121,296.1,18.68,89.7,0,0,868.6703,0,22.77,2.856,231,20.58,19.47,0.807173,0,50.61,57.56,33.45,35.12
"2018-07-12 21:10:00",349100,0.079,307.9,18.66,89.8,0,0,868.6703,0,22.07,2.863,232,20.58,19.45,0.723803,0,50.61,57.56,33.45,35.12
"2018-07-12 21:20:00",349101,0,0,18.16,98.8,0,0,868.6724,0,22.15,2.866,238,20.59,19.45,0.02273727,0,50.55,57.56,33.43,35.12
"2018-07-12 21:30:00",349102,0.064,11.84,17.82,100,0,0,868.6703,0,22.14,2.867,240,20.62,19.45,0.04926408,0,50.61,57.56,33.45,35.12
"2018-07-12 21:40:00",349103,0.073,28.71,17.73,100,0,0,868.5966,0,22.49,2.864,233,20.58,19.45,0.09852815,0,50.55,57.51,33.43,35.1
"2018-07-12 21:50:00",349104,0.041,132.1,17.52,100,0,0,868.4407,0,22.48,2.865,242,20.57,19.45,0,0,50.55,57.51,33.43,35.1
"2018-07-12 22:00:00",349105,0.076,133.5,17.45,100,0,0,868.4176,0,22.83,2.862,239,20.52,19.45,0.1705295,0,50.55,57.51,33.43,35.1
"2018-07-12 22:10:00",349106,0.014,133.8,17.43,100,0,0,868.4176,0,22.97,2.86,240,20.5,19.45,0.2273727,0,50.55,57.51,33.43,35.1
"2018-07-12 22:20:00",349107,0.019,133.3,17.49,100,0,0,868.4176,0,21.63,2.873,240,20.54,19.46,0.2273727,0,50.55,57.51,33.43,35.1
"2018-07-12 22:30:00",349108,0,0,17.49,100,0,0,868.5692,0,22.43,2.865,240,20.58,19.46,0.3637963,0,50.55,57.51,33.43,35.1
"2018-07-12 22:40:00",349109,0.14,116.1,17.47,100,0,0,868.4998,0,22.4,2.866,252,20.5,19.49,0.3221113,0,50.55,57.51,33.43,35.1
"2018-07-12 22:50:00",349110,0.118,128.5,17.38,100,0,0,868.4176,0,21.64,2.874,248,20.41,19.52,0.2349517,0,50.61,57.51,33.45,35.1
"2018-07-12 23:00:00",349111,0.149,152.9,17.33,100,0,0,868.4113,0,21.08,2.879,284,20.41,19.5,0.2273727,0,50.55,57.51,33.43,35.1
"2018-07-12 23:10:00",349112,0.153,139.2,17.21,100,0,0,868.1711,0,21.65,2.875,257,20.43,19.52,0.1856877,0,50.55,57.68,33.43,35.14
"2018-07-12 23:20:00",349113,0.041,298.3,17.42,100,0,0,868.2406,0,21.57,2.873,235,20.46,19.52,0.6025376,0,50.55,57.45,33.43,35.09
"2018-07-12 23:30:00",349114,0.035,283.1,17.69,100,0,0,868.2343,0,21.36,2.875,233,20.41,19.53,0.7086448,0,50.55,57.51,33.43,35.1
"2018-07-12 23:40:00",349115,0,0,17.59,100,0,0,868.2006,0,21.51,2.874,234,20.33,19.53,0.3903231,0,50.55,57.51,33.43,35.1
"2018-07-12 23:50:00",349116,0,0,17.64,100,0,0,868.1838,0,21.61,2.873,235,20.32,19.53,0.466114,0,50.55,57.51,33.43,35.1
